SCP
0 0 0 0 0 0 0 0 0 0 0 0 0 0 0 0 0 0 0 0 0 0 0 0 0 0 0 0 0 0 0 0 0 0 0 0 0 0 0 0 0 0 0
0 0 0 0 0 0 0 0 0 0 0 0 0 0 0 0 0 0 0 0 0 0 0 0 0 0 0 0 0 0 0 0 0 0 0 0 0 0 0 0 0 0 0
0 0 0 0 0 0 0 0 0 0 0 0 0 0 0 0 0 0 0 0 0 0 0 0 0 0 0 0 0 0 0 0 0 0 0 0 0 0 0 0 0 0 0
0 0 0 0 0 0 0 0 0 0 0 0 0 0 0 0 0 0 0 0 0 0 0 0 0 0 0 0 0 0 0 0 0 0 0 0 0 0 0 0 0 0 0
0 0 0 0 0 0 0 0 0 0 0 0 0 0 0 0 0 0 0 0 0 0 0 0 0 0 0 0 0 0 0 0 0 0 0 0 0 0 0 0 0 0 0
0 0 0 0 0 0 0 0 0 0 0 0 0 0 0 0 0 0 0 0 0 0 0 0 0 0 0 0 0 0 0 0 0 0 0 0 0 0 0 0 0 0 0
0 0 0 0 0 0 0 0 0 0 0 0 0 0 0 0 0 0 0 0 0 0 0 0 0 0 0 0 0 0 0 0 0 0 0 0 0 0 0 0 0 0 0
0 0 0 0 0 0 0 0 0 0 0 0 0 0 0 0 0 0 0 0 0 0 0 0 0 0 0 0 0 0 0 0 0 0 0 0 0 0 0 0 0 0 0
0 0 0 0 0 0 0 0 0 0 0 0 0 0 0 0 0 0 0 0 0 0 0 0 0 0 0 0 0 0 0 0 0 0 0 0 0 0 0 0 0 0 0
0 0 0 0 0 0 0 0 0 0 0 0 0 0 0 0 0 0 0 0 0 0 0 0 0 0 0 0 0 0 0 0 0 0 0 0 0 0 0 0 0 0 0
0 0 0 0 0 0 0 0 0 0 0 0 0 0 0 0 0 0 0 0 0 0 0 0 0 0 0 0 0 0 0 0 0 0 0 0 0 0 0 0 0 0 0
0 0 0 0 0 0 0 0 0 0 0 0 0 0 0 0 0 0 0 0 0 0 0 0 0 0 0 0 0 0 0 0 0 0 0 0 0 0 0 0 0 0 0
0 0 0 0 0 0 0 0 0 0 0 0 0 0 0 0 0 0 0 0 0 0 0 0 0 0 0 0 0 0 0 0 0 0 0 0 0 0 0 0 0 0 0
0 0 0 0 0 0 0 0 0 0 0 0 0 0 0 0 0 0 0 0 0 0 0 0 0 0 0 0 0 0 0 0 0 0 0 0 0 0 0 0 0 0 0
0 0 0 0 0 0 0 0 0 0 0 0 0 0 0 0 0 0 0 0 0 0 0 0 0 0 0 0 0 0 0 0 0 0 0 0 0 0 0 0 0 0 0
0 0 0 0 0 0 0 0 0 0 0 0 0 0 0 0 0 0 0 0 0 0 0 0 0 0 0 0 0 0 0 0 0 0 0 0 0 0 0 0 0 0 0
0 0 0 0 0 0 0 0 0 0 0 0 0 0 0 0 0 0 0 0 0 0 0 0 0 0 0 0 0 0 0 0 0 0 0 0 0 0 0 0 0 0 0
0 0 0 0 0 0 0 0 0 0 0 0 0 0 0 0 0 0 0 0 0 0 0 0 0 0 0 0 0 0 0 0 0 0 0 0 0 0 0 0 0 0 0
0 0 0 0 0 0 0 0 0 0 0 0 0 0 0 0 0 0 0 0 0 0 0 0 0 0 0 0 0 0 0 0 0 0 0 0 0 0 0 0 0 0 0
0 0 0 0 0 0 0 0 0 0 0 0 0 0 0 0 0 0 0 0 0 0 0 0 0 0 0 0 0 0 0 0 0 0 0 0 0 0 0 0 0 0 0
0 0 0 0 0 0 0 0 0 0 0 0 0 0 0 0 0 0 0 0 0 0 0 0 0 0 0 0 0 0 0 0 0 0 0 0 0 0 0 0 0 0 0
0 0 0 0 0 0 0 0 0 0 0 0 0 0 0 0 0 0 0 0 0 0 0 0 0 0 0 0 0 0 0 0 0 0 0 0 0 0 0 0 0 0 0
0 0 0 0 0 0 0 0 0 0 0 0 0 0 0 0 0 0 0 0 0 0 0 0 0 0 0 0 0 0 0 0 0 0 0 0 0 0 0 0 0 0 0
0 0 0 0 0 0 0 0 0 0 0 0 0 0 0 0 0 0 0 0 0 0 0 0 0 0 0 0 0 0 0 0 0 0 0 0 0 0 0 0 0 0 0
0 0 0 0 0 0 0 0 0 0 0 0 0 0 0 0 0 0 0 0 0 0 0 0 0 0 0 0 0 0 0 0 0 0 0 0 0 0 0 0 0 0 0
0 0 0 0 0 0 0 0 0 0 0 0 0 0 0 0 0 0 0 0 0 0 0 0 0 0 0 0 0 0 0 0 0 0 0 0 0 0 0 0 0 0 0
Wind_Speed
1 2 1 1 1 0 1 2 2 2 2 2 2 2 2 2 2 2 2 2 2 2 2 2 3 3 3 2 2 2 3 3 5 5 3 3 3 4 4 3 3 3 4
1 2 2 1 1 1 1 2 2 2 2 2 2 2 2 3 3 3 3 3 3 3 2 2 3 3 3 3 3 3 3 4 4 6 4 3 4 3 3 4 4 4 4
2 2 2 2 1 2 2 2 2 2 2 2 2 3 3 3 3 3 4 3 3 3 3 3 4 3 4 3 4 4 3 3 4 4 5 3 3 3 3 4 4 4 4
2 2 2 3 2 2 3 3 3 2 3 3 3 3 3 3 4 4 4 3 4 4 4 4 4 4 4 4 4 4 4 4 3 4 4 3 3 3 2 3 4 3 4
2 3 3 3 3 2 2 3 3 3 3 3 3 3 3 3 4 4 4 3 3 4 4 4 4 6 7 5 4 4 4 4 3 4 4 3 3 2 3 3 4 4 4
2 3 3 3 3 3 3 3 3 3 3 3 3 3 3 4 7 7 4 3 3 4 4 4 4 5 7 8 9 9 7 5 5 4 4 5 5 4 4 3 3 3 4
3 4 3 3 3 3 3 3 3 3 3 3 3 4 4 6 8 8 7 3 3 4 4 4 4 5 6 4 7 8 7 8 8 6 6 6 5 5 4 4 4 5 5
3 4 4 3 4 3 3 3 4 3 3 4 4 4 4 6 8 8 8 3 4 4 4 4 4 4 5 5 4 4 5 5 6 5 5 5 5 5 5 5 5 5 4
4 4 4 4 4 4 4 4 4 3 3 4 4 4 4 6 8 8 6 2 3 4 4 4 4 4 8 8 4 4 5 5 6 7 7 7 8 8 5 2 3 3 5
4 4 4 4 4 4 4 4 4 3 4 4 4 4 5 5 7 8 6 2 3 3 3 4 7 7 9 8 4 4 5 5 3 3 4 5 4 5 5 3 3 4 3
4 4 4 4 4 4 4 4 3 3 3 4 4 4 4 6 7 8 7 2 3 3 3 3 4 9 10 9 6 4 6 5 3 3 3 3 2 2 3 3 3 4 4
3 4 4 4 4 3 3 3 3 3 3 4 4 4 3 4 5 6 7 6 5 3 4 3 4 8 9 8 6 7 7 5 2 2 3 3 3 3 3 3 4 4 4
3 4 4 4 3 3 3 3 3 3 3 3 3 3 3 3 3 6 6 7 7 4 3 6 8 8 7 5 7 7 5 3 2 3 4 4 3 3 3 2 3 3 3
4 4 3 3 3 3 3 3 3 3 3 3 3 4 3 3 3 3 3 3 5 4 3 5 7 7 6 6 5 4 3 3 3 3 4 3 2 2 2 2 2 2 2
4 4 3 3 3 3 3 3 4 4 5 4 4 4 4 4 5 7 4 3 3 3 3 2 2 2 2 2 2 2 2 2 3 3 3 3 3 3 3 2 2 2 2
4 3 3 2 2 2 3 3 5 6 8 8 8 7 6 7 8 8 8 8 7 6 3 2 2 3 3 3 3 3 3 3 3 3 3 3 3 3 3 2 2 2 3
4 4 3 3 3 3 3 3 4 5 7 7 7 8 7 7 7 7 7 6 5 4 2 2 3 3 3 3 3 3 3 3 3 3 3 3 3 3 3 3 2 3 3
4 4 4 3 3 3 3 3 3 4 4 4 5 7 7 7 6 6 5 3 2 2 2 3 3 3 3 3 3 3 3 3 3 3 3 3 3 3 3 3 3 4 4
3 3 3 3 3 3 3 3 3 4 3 3 3 4 5 5 5 4 2 1 2 2 2 3 3 3 3 3 4 4 4 4 4 3 3 4 3 3 4 4 4 5 4
3 5 4 3 3 3 3 3 3 3 3 3 3 3 2 2 2 2 1 1 2 3 3 3 3 3 3 3 3 3 4 4 4 4 4 4 3 3 4 4 4 3 3
2 3 5 3 2 3 2 3 3 3 3 3 3 4 5 2 2 2 2 2 2 3 3 3 3 3 3 3 3 4 4 4 4 4 4 3 3 3 3 3 3 3 3
2 2 2 2 2 2 2 2 2 3 3 3 3 3 6 3 2 2 2 3 3 3 3 3 3 3 3 4 4 4 4 4 4 4 3 3 3 3 3 3 3 3 3
2 2 2 2 2 3 3 2 2 2 3 3 3 3 3 2 3 3 3 3 3 3 2 3 3 3 3 3 4 4 4 5 4 4 4 3 3 3 3 4 4 4 4
2 2 2 2 2 2 2 2 2 3 3 3 3 3 3 3 3 3 3 3 3 3 3 3 3 4 5 4 4 4 4 4 4 4 4 4 4 3 3 3 4 4 4
2 2 2 2 2 2 2 2 2 3 3 3 3 3 3 3 3 3 3 3 3 3 4 4 3 4 5 6 5 5 6 7 6 4 3 3 4 4 4 4 4 3 3
2 2 2 2 2 2 2 2 2 2 3 3 3 3 3 3 3 3 3 2 3 3 3 3 4 5 5 5 6 6 7 7 7 6 3 3 3 3 3 3 4 3 3
Wind_Direction
351 349 335 304 308 298 259 247 237 238 227 220 226 232 240 248 252 243 244 242 242 257 268 256 254 252 244 240 235 233 235 232 252 270 265 273 273 280 294 289 287 279 281
332 337 317 295 303 284 271 265 254 246 242 234 232 236 244 248 241 233 237 233 235 245 258 261 263 261 251 247 243 242 241 238 243 268 276 274 269 275 280 284 293 294 280
327 322 319 300 283 275 274 275 267 254 251 244 229 230 239 244 242 238 233 233 238 240 242 245 253 255 255 251 246 246 247 251 244 254 269 270 273 280 286 288 288 282 286
314 305 297 289 269 267 273 271 268 261 249 241 238 239 239 244 244 239 234 236 243 246 243 241 245 245 248 252 248 243 246 252 251 253 262 269 270 277 271 280 290 281 284
305 299 289 293 284 280 279 272 268 265 258 243 240 246 245 243 247 242 227 230 239 250 253 251 252 259 261 260 260 246 240 242 245 252 259 269 272 282 269 264 274 287 282
283 283 288 295 293 281 277 276 273 266 260 250 244 242 244 255 269 264 253 222 230 242 254 261 267 266 272 274 274 268 256 246 243 243 255 254 258 259 264 269 276 288 282
278 282 286 287 286 278 279 275 270 263 258 253 250 244 245 256 269 269 266 239 227 237 246 256 269 272 279 271 275 279 273 268 259 251 249 252 256 254 253 261 260 263 261
275 278 278 278 282 278 272 267 266 261 256 253 255 249 249 262 271 270 271 247 237 240 243 244 253 263 271 277 268 271 267 266 264 253 249 257 260 260 248 252 258 269 274
268 271 273 271 275 273 271 271 271 264 263 256 252 246 247 261 269 270 269 233 243 249 251 251 257 257 272 283 279 273 276 277 281 273 270 270 273 274 274 267 266 275 276
268 270 269 265 267 265 264 268 271 265 261 263 259 249 247 255 267 270 270 233 248 258 260 256 261 268 272 278 261 255 268 273 280 291 288 289 284 278 279 255 249 266 280
271 275 271 266 263 260 263 264 266 269 266 263 263 260 253 259 266 268 269 247 239 255 262 264 264 274 278 279 278 257 266 279 268 264 269 276 278 272 268 257 246 246 255
269 274 275 273 271 270 265 269 264 260 259 261 265 268 262 262 267 271 275 274 271 256 260 264 270 281 285 286 285 279 283 287 273 266 264 265 267 270 271 266 260 254 251
266 271 276 279 277 273 263 265 266 254 253 259 259 265 272 267 266 274 277 282 283 278 270 279 285 288 291 286 282 285 285 270 265 266 264 263 260 264 272 278 279 274 276
253 262 267 271 278 277 270 259 254 251 250 254 254 260 266 265 258 256 252 261 271 276 278 278 287 290 292 288 288 288 280 261 261 257 264 268 271 270 270 271 274 278 286
249 253 262 262 261 268 270 258 257 248 249 251 244 244 250 255 260 272 272 256 253 255 273 264 262 276 280 285 290 287 279 274 273 269 266 270 271 269 271 270 263 271 269
244 248 250 256 261 266 275 286 282 277 282 277 273 266 256 262 275 276 279 282 282 276 273 250 259 263 267 274 279 283 277 271 268 267 264 261 260 258 263 263 258 253 262
234 243 247 250 254 264 271 279 292 299 298 298 292 285 277 278 280 280 279 281 277 271 257 252 259 265 268 268 268 272 275 271 266 263 264 261 258 256 256 256 253 257 261
232 243 246 241 246 254 260 265 271 280 291 297 298 298 298 291 286 288 286 285 267 260 250 253 260 266 268 268 269 270 274 275 268 261 259 259 256 254 255 252 248 249 257
228 233 235 236 241 249 258 267 271 272 277 288 293 298 305 301 297 292 287 239 247 258 259 257 259 262 263 264 266 268 267 267 268 266 261 258 254 253 253 250 248 256 260
233 250 252 242 240 247 254 262 270 275 281 285 283 284 294 298 277 278 270 253 248 256 257 259 262 262 261 261 263 264 267 267 264 262 262 261 256 251 253 256 253 252 252
233 248 257 254 242 243 249 254 260 265 267 271 275 282 292 270 262 267 269 261 257 259 260 261 263 263 262 260 258 260 263 266 265 263 260 258 256 252 251 251 253 250 249
223 231 235 235 239 242 245 244 250 262 265 270 279 286 299 291 272 273 270 267 265 261 260 263 263 261 258 257 256 258 260 262 264 263 258 255 255 250 246 245 248 247 241
216 227 238 241 242 257 264 249 248 257 264 269 274 279 282 278 273 273 272 270 270 269 265 263 265 268 266 264 258 253 254 257 260 257 250 250 247 245 242 241 242 248 245
218 226 234 242 245 245 250 253 253 256 259 263 268 273 277 276 274 274 274 273 272 273 271 267 264 267 272 273 269 264 260 261 262 254 241 239 243 245 242 242 243 245 244
216 227 237 242 243 249 253 254 257 260 262 265 267 271 274 274 274 275 273 271 272 273 275 274 271 268 271 275 276 273 269 268 267 260 240 230 232 233 234 239 242 246 247
230 233 238 242 244 250 252 255 262 266 268 270 267 265 266 266 267 271 273 273 276 275 277 276 275 275 277 277 275 275 275 273 267 262 241 225 221 226 229 235 239 238 233